カタログに戻る

STARLINK-36953

運用中通信VLEO
NORAD 68010·PAYLOAD·🇺🇸 United States

打ち上げ Feb 27, 2026 から Vandenberg Space Force Base

Loading…

次のパス (今後24時間)

TLE

最新Source: CelesTrak SupGP

元期: Sep 15, 2026, 04:23 UTC

1 68010C 26039AA  26258.18312500 -.00018926  00000+0 -68550-3 0  2580
2 68010  43.0045  58.5804 0001509 268.3938 176.3778 15.27587803    13

AllMySatでSTARLINK-36953をリアルタイム追跡

Download on the App Store